Home   Weather   Billings   Past weeks

Flag for USA Past Weather in Billings, Montana, USA — Yesterday and Last 2 Weeks

Now
64 °F

Partly cloudy.


Feels Like: 64 °F
Forecast: 60 / 88 °F
Wind: 12 mph from Southwest

Location: Billings Logan International Airport

Current Time: Aug 19, 2017 at 6:59:59 am

Latest Report: Aug 19, 2017 at 5:53 am


Visibility: 10 mi

Pressure: 29.82 "Hg (26.68 "Hg at 946m altitude)

Humidity: 30%

Dew Point: 32 °F

Location of BillingsLocation

Past Weather in Billings — Graph

°F

Billings Temperature Yesterday

Maximum temperature yesterday: 92 °F (at 5:53 pm)
Minimum temperature yesterday: 60 °F (at 5:53 am)
Average temperature yesterday: 75 °F

High & Low Weather Summary for the Past Weeks

 TemperatureHumidityPressure
High92 °F (Aug 18, 5:53 pm)84% (Aug 5, 6:53 am)30.17 "Hg (Aug 5, 6:53 am)
Low53 °F (Aug 7, 5:53 am)6% (Aug 18, 6:53 pm)29.69 "Hg (Aug 13, 5:53 pm)
Average69 °F42%29.95 "Hg
* Reported Aug 4 4:53 am — Aug 19 4:53 am, Billings. Weather by CustomWeather, © 2017

Note: Actual official high and low records may vary slightly from our data, if they occured in-between our weather recording intervals... More about our weather records

Advertising

Billings Weather History for the Previous 24 Hours

Scroll right to see more
 ConditionsComfort  
Time TempWeatherWind HumidityBarometerVisibility
4:53 am
Sat, Aug 19
66 °FPassing clouds.12 mph27%29.80 "Hg10 mi
3:53 am67 °FPassing clouds.13 mph24%29.80 "Hg10 mi
2:53 am67 °FClear.16 mph32%29.79 "Hg10 mi
1:53 am64 °FClear.10 mph32%29.79 "Hg10 mi
12:53 am71 °FClear.13 mph24%29.78 "Hg10 mi
11:53 pm
Fri, Aug 18
74 °FClear.12 mph21%29.79 "Hg10 mi
10:53 pm74 °FClear.8 mph22%29.80 "Hg10 mi
9:53 pm74 °FClear.5 mph13%29.82 "Hg10 mi
8:53 pm78 °FClear.10 mph11%29.81 "Hg10 mi
7:53 pm84 °FSunny.8 mph8%29.80 "Hg10 mi
6:53 pm91 °FSunny.10 mph6%29.80 "Hg10 mi
5:53 pm92 °FSunny.15 mph8%29.81 "Hg10 mi
4:53 pm90 °FSunny.9 mph14%29.82 "Hg10 mi
3:53 pm89 °FSunny.13 mph15%29.83 "Hg10 mi
2:53 pm88 °FSunny.17 mph15%29.85 "Hg10 mi
1:53 pm85 °FSunny.8 mph17%29.88 "Hg10 mi
12:53 pm83 °FSunny.7 mph21%29.90 "Hg10 mi
11:53 am78 °FSunny.9 mph27%29.94 "Hg10 mi
10:53 am74 °FSunny.12 mph31%29.97 "Hg10 mi
9:53 am68 °FSunny.15 mph39%29.98 "Hg10 mi
8:53 am63 °FSunny.14 mph45%29.99 "Hg10 mi
7:53 am61 °FSunny.17 mph42%29.99 "Hg10 mi
6:53 am60 °FPassing clouds.18 mph44%29.98 "Hg10 mi
Weather by CustomWeather, © 2017

See weather overviewHow to use our weather pages